Time,TemperatureF,DewpointF,PressureIn,WindDirection,WindDirectionDegrees,WindSpeedMPH,WindSpeedGustMPH,Humidity,HourlyPrecipIn,Conditions,Clouds,dailyrainin,SoftwareType,DateUTC
2013-08-03 00:00:00,63.9,56.1,28.24,NNE,22,0.0,0.0,76,0.00,CLR,,0.00,WeatherDisplay:10.37,2013-08-03 04:00:00,
2013-08-03 00:10:00,63.9,55.4,28.24,NNE,22,0.0,0.0,74,0.00,CLR,,0.00,WeatherDisplay:10.37,2013-08-03 04:10:00,
2013-08-03 00:20:00,63.7,56.0,28.24,NNE,22,0.0,0.0,76,0.00,CLR,,0.00,WeatherDisplay:10.37,2013-08-03 04:20:00,
2013-08-03 00:30:00,63.5,55.8,28.24,NNE,22,0.0,0.0,76,0.00,CLR,,0.00,WeatherDisplay:10.37,2013-08-03 04:30:00,
2013-08-03 00:40:00,63.3,55.6,28.24,NNE,22,0.0,0.0,76,0.00,CLR,,0.00,WeatherDisplay:10.37,2013-08-03 04:40:00,
2013-08-03 00:50:00,63.3,56.7,28.21,NNE,22,0.0,0.0,79,0.00,CLR,,0.00,WeatherDisplay:10.37,2013-08-03 04:50:00,
2013-08-03 01:00:00,63.2,56.2,28.21,NNE,22,0.0,0.0,78,0.00,CLR,,0.00,WeatherDisplay:10.37,2013-08-03 05:00:00,
2013-08-03 01:10:00,63.1,56.5,28.21,NNE,22,0.0,0.0,79,0.00,CLR,,0.00,WeatherDisplay:10.37,2013-08-03 05:10:00,
2013-08-03 01:20:00,63.1,56.9,28.21,NNE,22,0.0,0.0,80,0.00,CLR,,0.00,WeatherDisplay:10.37,2013-08-03 05:20:00,
2013-08-03 01:30:00,63.5,57.9,28.21,NNE,22,0.0,0.0,82,0.00,CLR,,0.00,WeatherDisplay:10.37,2013-08-03 05:30:00,
2013-08-03 01:40:00,63.7,58.1,28.21,NNE,22,0.0,0.0,82,0.00,CLR,,0.00,WeatherDisplay:10.37,2013-08-03 05:40:00,
2013-08-03 01:50:00,63.9,58.3,28.21,NNE,22,0.0,0.0,82,0.00,CLR,,0.00,WeatherDisplay:10.37,2013-08-03 05:50:00,
2013-08-03 02:00:00,64.0,58.4,28.21,NNE,22,0.0,0.0,82,0.00,CLR,,0.00,WeatherDisplay:10.37,2013-08-03 06:00:00,
2013-08-03 02:10:00,64.2,58.6,28.21,NNE,22,0.0,0.0,82,0.00,CLR,,0.00,WeatherDisplay:10.37,2013-08-03 06:10:00,
2013-08-03 02:20:00,64.2,58.6,28.21,NNE,22,0.0,0.0,82,0.00,CLR,,0.00,WeatherDisplay:10.37,2013-08-03 06:20:00,
2013-08-03 02:30:00,64.2,58.6,28.21,NNE,22,0.0,0.0,82,0.00,CLR,,0.00,WeatherDisplay:10.37,2013-08-03 06:30:00,
2013-08-03 02:40:00,64.4,58.8,28.21,NNE,22,0.0,0.0,82,0.00,CLR,,0.00,WeatherDisplay:10.37,2013-08-03 06:40:00,
2013-08-03 02:50:00,64.4,59.1,28.21,NNE,22,0.0,0.0,83,0.00,CLR,,0.00,WeatherDisplay:10.37,2013-08-03 06:50:00,
2013-08-03 03:00:00,64.6,59.0,28.21,NNE,22,0.0,0.0,82,0.00,CLR,,0.00,WeatherDisplay:10.37,2013-08-03 07:00:00,
2013-08-03 03:10:00,64.6,58.6,28.21,NNE,23,1.0,2.0,81,0.00,CLR,,0.00,WeatherDisplay:10.37,2013-08-03 07:10:00,
2013-08-03 03:20:00,64.8,58.4,28.21,NNE,23,1.0,2.0,80,0.00,CLR,,0.00,WeatherDisplay:10.37,2013-08-03 07:20:00,
2013-08-03 03:30:00,64.8,58.4,28.21,NE,45,1.0,2.0,80,0.00,CLR,,0.00,WeatherDisplay:10.37,2013-08-03 07:30:00,
2013-08-03 03:40:00,64.6,58.3,28.21,ENE,58,0.0,1.0,80,0.00,CLR,,0.00,WeatherDisplay:10.37,2013-08-03 07:40:00,
2013-08-03 03:50:00,64.6,57.9,28.21,ENE,68,0.0,0.0,79,0.00,CLR,,0.00,WeatherDisplay:10.37,2013-08-03 07:50:00,
2013-08-03 04:00:00,64.6,57.9,28.21,ENE,68,0.0,0.0,79,0.00,CLR,,0.00,WeatherDisplay:10.37,2013-08-03 08:00:00,
2013-08-03 04:10:00,64.6,57.9,28.21,ENE,68,0.0,0.0,79,0.00,CLR,,0.00,WeatherDisplay:10.37,2013-08-03 08:10:00,
2013-08-03 04:20:00,64.4,57.7,28.21,ENE,68,0.0,0.0,79,0.00,CLR,,0.00,WeatherDisplay:10.37,2013-08-03 08:20:00,
2013-08-03 04:30:00,64.4,58.4,28.21,NE,55,0.0,0.0,81,0.00,CLR,,0.00,WeatherDisplay:10.37,2013-08-03 08:30:00,
2013-08-03 04:40:00,64.6,59.0,28.21,NE,45,1.0,2.0,82,0.00,CLR,,0.00,WeatherDisplay:10.37,2013-08-03 08:40:00,
2013-08-03 04:50:00,64.4,58.4,28.21,NE,45,0.0,1.0,81,0.00,CLR,,0.00,WeatherDisplay:10.37,2013-08-03 08:50:00,
2013-08-03 05:00:00,64.4,58.8,28.21,NE,45,0.0,1.0,82,0.00,CLR,,0.00,WeatherDisplay:10.37,2013-08-03 09:00:00,
2013-08-03 05:10:00,64.4,59.1,28.21,ENE,60,2.0,2.0,83,0.00,CLR,,0.00,WeatherDisplay:10.37,2013-08-03 09:10:00,
2013-08-03 05:20:00,64.4,59.5,28.21,ENE,68,1.0,2.0,84,0.00,CLR,,0.00,WeatherDisplay:10.37,2013-08-03 09:20:00,
2013-08-03 05:30:00,64.4,59.1,28.21,ENE,67,0.0,1.0,83,0.00,CLR,,0.00,WeatherDisplay:10.37,2013-08-03 09:30:00,
2013-08-03 05:40:00,64.4,59.1,28.21,NE,42,0.0,0.0,83,0.00,CLR,,0.00,WeatherDisplay:10.37,2013-08-03 09:40:00,
2013-08-03 05:50:00,64.4,59.1,28.21,NNE,22,0.0,0.0,83,0.00,CLR,,0.00,WeatherDisplay:10.37,2013-08-03 09:50:00,
2013-08-03 06:00:00,64.4,59.1,28.21,NNE,22,0.0,0.0,83,0.00,CLR,,0.00,WeatherDisplay:10.37,2013-08-03 10:00:00,
2013-08-03 06:10:00,64.4,59.1,28.21,NNE,22,0.0,0.0,83,0.00,CLR,,0.00,WeatherDisplay:10.37,2013-08-03 10:10:00,
2013-08-03 06:20:00,64.4,58.8,28.21,NNE,22,0.0,0.0,82,0.00,CLR,,0.00,WeatherDisplay:10.37,2013-08-03 10:20:00,
2013-08-03 06:30:00,64.2,58.9,28.21,NNE,15,0.0,0.0,83,0.00,CLR,,0.00,WeatherDisplay:10.37,2013-08-03 10:30:00,
2013-08-03 06:40:00,64.2,58.9,28.21,North,0,0.0,0.0,83,0.00,CLR,,0.00,WeatherDisplay:10.37,2013-08-03 10:40:00,
2013-08-03 06:50:00,64.2,59.3,28.18,North,0,0.0,0.0,84,0.00,CLR,,0.00,WeatherDisplay:10.37,2013-08-03 10:50:00,
2013-08-03 07:00:00,64.2,59.3,28.18,North,0,0.0,0.0,84,0.00,CLR,,0.00,WeatherDisplay:10.37,2013-08-03 11:00:00,
2013-08-03 07:10:00,64.2,59.3,28.18,North,0,0.0,0.0,84,0.00,CLR,,0.00,WeatherDisplay:10.37,2013-08-03 11:10:00,
2013-08-03 07:20:00,63.9,58.9,28.18,North,0,0.0,0.0,84,0.00,CLR,,0.00,WeatherDisplay:10.37,2013-08-03 11:20:00,
2013-08-03 07:30:00,63.9,59.3,28.18,North,0,0.0,0.0,85,0.00,CLR,,0.00,WeatherDisplay:10.37,2013-08-03 11:30:00,
2013-08-03 07:40:00,63.9,59.3,28.18,North,0,0.0,0.0,85,0.00,CLR,,0.00,WeatherDisplay:10.37,2013-08-03 11:40:00,
2013-08-03 07:50:00,64.3,60.7,28.18,North,0,0.0,0.0,88,0.00,CLR,,0.00,WeatherDisplay:10.37,2013-08-03 11:50:00,
2013-08-03 08:00:00,65.5,62.5,28.18,North,0,0.0,0.0,90,0.00,CLR,,0.00,WeatherDisplay:10.37,2013-08-03 12:00:00,
2013-08-03 08:10:00,66.2,63.2,28.18,North,0,0.0,0.0,90,0.00,CLR,,0.00,WeatherDisplay:10.37,2013-08-03 12:10:00,
2013-08-03 08:20:00,66.6,63.2,28.21,North,0,0.0,0.0,89,0.00,CLR,,0.00,WeatherDisplay:10.37,2013-08-03 12:20:00,
2013-08-03 08:30:00,66.9,63.2,28.21,North,0,0.0,0.0,88,0.00,CLR,,0.00,WeatherDisplay:10.37,2013-08-03 12:30:00,
2013-08-03 08:40:00,67.3,62.9,28.21,SSW,205,0.0,0.0,86,0.00,CLR,,0.00,WeatherDisplay:10.37,2013-08-03 12:40:00,
2013-08-03 08:50:00,67.9,63.6,28.21,SSW,202,0.0,0.0,86,0.00,CLR,,0.00,WeatherDisplay:10.37,2013-08-03 12:50:00,
2013-08-03 09:00:00,68.2,63.2,28.21,SSW,206,1.0,1.0,84,0.00,CLR,,0.00,WeatherDisplay:10.37,2013-08-03 13:00:00,
2013-08-03 09:10:00,68.7,63.0,28.21,SSW,202,0.0,2.0,82,0.00,CLR,,0.00,WeatherDisplay:10.37,2013-08-03 13:10:00,
2013-08-03 09:20:00,69.1,63.4,28.21,SSW,202,0.0,2.0,82,0.00,CLR,,0.00,WeatherDisplay:10.37,2013-08-03 13:20:00,
2013-08-03 09:30:00,69.3,62.8,28.21,SSW,202,0.0,1.0,80,0.00,CLR,,0.00,WeatherDisplay:10.37,2013-08-03 13:30:00,
2013-08-03 09:40:00,70.3,63.1,28.18,South,184,0.0,1.0,78,0.00,CLR,,0.00,WeatherDisplay:10.37,2013-08-03 13:40:00,
2013-08-03 09:50:00,71.5,60.0,28.18,ESE,116,1.0,2.0,67,0.00,CLR,,0.00,WeatherDisplay:10.37,2013-08-03 13:50:00,
2013-08-03 10:00:00,72.6,59.3,28.18,SSW,195,1.0,2.0,63,0.00,CLR,,0.00,WeatherDisplay:10.37,2013-08-03 14:00:00,
2013-08-03 10:10:00,73.2,59.9,28.21,SSW,202,1.0,2.0,63,0.00,CLR,,0.00,WeatherDisplay:10.37,2013-08-03 14:10:00,
2013-08-03 10:20:00,74.0,58.3,28.21,SSW,202,1.0,2.0,58,0.00,CLR,,0.00,WeatherDisplay:10.37,2013-08-03 14:20:00,
2013-08-03 10:30:00,75.2,56.9,28.21,SSW,210,2.0,2.0,53,0.00,CLR,,0.00,WeatherDisplay:10.37,2013-08-03 14:30:00,
2013-08-03 10:40:00,76.6,59.3,28.21,SSW,202,2.0,2.0,55,0.00,CLR,,0.00,WeatherDisplay:10.37,2013-08-03 14:40:00,
2013-08-03 10:50:00,77.0,56.4,28.21,SSW,202,2.0,2.0,49,0.00,CLR,,0.00,WeatherDisplay:10.37,2013-08-03 14:50:00,
2013-08-03 11:00:00,77.2,53.6,28.21,SSW,202,2.0,2.0,44,0.00,CLR,,0.00,WeatherDisplay:10.37,2013-08-03 15:00:00,
2013-08-03 11:10:00,78.1,56.2,28.24,South,186,1.0,3.0,47,0.00,CLR,,0.00,WeatherDisplay:10.37,2013-08-03 15:10:00,
2013-08-03 11:20:00,78.3,53.3,28.21,SW,230,2.0,5.0,42,0.00,CLR,,0.00,WeatherDisplay:10.37,2013-08-03 15:20:00,
2013-08-03 11:30:00,78.1,52.5,28.21,SSW,203,3.0,7.0,41,0.00,CLR,,0.00,WeatherDisplay:10.37,2013-08-03 15:30:00,
2013-08-03 11:40:00,78.2,52.6,28.24,SSW,198,6.0,8.0,41,0.00,CLR,,0.00,WeatherDisplay:10.37,2013-08-03 15:40:00,
2013-08-03 11:50:00,78.3,52.0,28.24,South,191,5.0,8.0,40,0.00,CLR,,0.00,WeatherDisplay:10.37,2013-08-03 15:50:00,
2013-08-03 12:00:00,78.5,50.8,28.24,South,186,5.0,8.0,38,0.00,CLR,,0.00,WeatherDisplay:10.37,2013-08-03 16:00:00,
2013-08-03 12:10:00,78.3,51.3,28.24,SSW,196,6.0,8.0,39,0.00,CLR,,0.00,WeatherDisplay:10.37,2013-08-03 16:10:00,
2013-08-03 12:20:00,78.3,51.3,28.24,SSW,208,5.0,10.0,39,0.00,CLR,,0.00,WeatherDisplay:10.37,2013-08-03 16:20:00,
2013-08-03 12:30:00,78.5,50.8,28.24,SW,226,3.0,9.0,38,0.00,CLR,,0.00,WeatherDisplay:10.37,2013-08-03 16:30:00,
2013-08-03 12:40:00,78.8,52.5,28.24,WSW,240,6.0,8.0,40,0.00,CLR,,0.00,WeatherDisplay:10.37,2013-08-03 16:40:00,
2013-08-03 12:50:00,79.2,52.1,28.24,SW,229,5.0,7.0,39,0.00,CLR,,0.00,WeatherDisplay:10.37,2013-08-03 16:50:00,
2013-08-03 13:00:00,79.3,51.5,28.24,SW,235,3.0,8.0,38,0.00,CLR,,0.00,WeatherDisplay:10.37,2013-08-03 17:00:00,
2013-08-03 13:10:00,78.6,52.3,28.24,SW,219,3.0,6.0,40,0.00,CLR,,0.00,WeatherDisplay:10.37,2013-08-03 17:10:00,
2013-08-03 13:20:00,78.9,51.1,28.24,SSW,208,5.0,7.0,38,0.00,CLR,,0.00,WeatherDisplay:10.37,2013-08-03 17:20:00,
2013-08-03 13:30:00,79.0,51.2,28.24,SW,228,3.0,10.0,38,0.00,CLR,,0.00,WeatherDisplay:10.37,2013-08-03 17:30:00,
2013-08-03 13:40:00,79.5,51.0,28.24,SSW,200,5.0,8.0,37,0.00,CLR,,0.00,WeatherDisplay:10.37,2013-08-03 17:40:00,
2013-08-03 13:50:00,80.9,54.3,28.24,SW,217,5.0,7.0,40,0.00,CLR,,0.00,WeatherDisplay:10.37,2013-08-03 17:50:00,
2013-08-03 14:00:00,80.8,49.8,28.24,SW,215,2.0,6.0,34,0.00,CLR,,0.00,WeatherDisplay:10.37,2013-08-03 18:00:00,
2013-08-03 14:10:00,80.2,53.0,28.24,SSE,159,5.0,6.0,39,0.00,CLR,,0.00,WeatherDisplay:10.37,2013-08-03 18:10:00,
2013-08-03 14:20:00,79.9,51.3,28.24,SSW,208,3.0,12.0,37,0.00,CLR,,0.00,WeatherDisplay:10.37,2013-08-03 18:20:00,
2013-08-03 14:30:00,80.2,48.5,28.24,SSW,202,6.0,6.0,33,0.00,CLR,,0.00,WeatherDisplay:10.37,2013-08-03 18:30:00,
2013-08-03 14:40:00,81.3,51.0,28.27,SSW,202,5.0,6.0,35,0.00,CLR,,0.00,WeatherDisplay:10.37,2013-08-03 18:40:00,
2013-08-03 14:50:00,81.5,49.6,28.27,SSW,202,5.0,5.0,33,0.00,CLR,,0.00,WeatherDisplay:10.37,2013-08-03 18:50:00,
2013-08-03 15:00:00,80.8,49.8,28.27,SSW,209,5.0,5.0,34,0.00,CLR,,0.00,WeatherDisplay:10.37,2013-08-03 19:00:00,
2013-08-03 15:10:00,79.7,48.9,28.27,SW,228,5.0,7.0,34,0.00,CLR,,0.00,WeatherDisplay:10.37,2013-08-03 19:10:00,
2013-08-03 15:20:00,80.8,50.6,28.27,SW,225,3.0,3.0,35,0.00,CLR,,0.00,WeatherDisplay:10.37,2013-08-03 19:20:00,
2013-08-03 15:30:00,81.4,51.1,28.27,SW,230,3.0,4.0,35,0.00,CLR,,0.00,WeatherDisplay:10.37,2013-08-03 19:30:00,
2013-08-03 15:40:00,81.9,49.9,28.27,WSW,241,3.0,7.0,33,0.00,CLR,,0.00,WeatherDisplay:10.37,2013-08-03 19:40:00,
2013-08-03 15:50:00,81.9,49.9,28.27,SSW,200,3.0,10.0,33,0.00,CLR,,0.00,WeatherDisplay:10.37,2013-08-03 19:50:00,
2013-08-03 16:00:00,81.7,51.4,28.27,SW,218,2.0,7.0,35,0.00,CLR,,0.00,WeatherDisplay:10.37,2013-08-03 20:00:00,
2013-08-03 16:10:00,83.1,51.0,28.27,SSW,194,6.0,10.0,33,0.00,CLR,,0.00,WeatherDisplay:10.37,2013-08-03 20:10:00,
2013-08-03 16:20:00,82.8,50.7,28.27,SSW,203,7.0,10.0,33,0.00,CLR,,0.00,WeatherDisplay:10.37,2013-08-03 20:20:00,
2013-08-03 16:30:00,83.1,50.2,28.27,SSW,200,5.0,8.0,32,0.00,CLR,,0.00,WeatherDisplay:10.37,2013-08-03 20:30:00,
2013-08-03 16:40:00,81.5,48.0,28.27,SSW,193,5.0,9.0,31,0.00,CLR,,0.00,WeatherDisplay:10.37,2013-08-03 20:40:00,
2013-08-03 16:50:00,80.2,49.3,28.27,SW,216,6.0,7.0,34,0.00,CLR,,0.00,WeatherDisplay:10.37,2013-08-03 20:50:00,
2013-08-03 17:00:00,80.2,48.4,28.27,SW,221,6.0,12.0,33,0.00,CLR,,0.00,WeatherDisplay:10.37,2013-08-03 21:00:00,
2013-08-03 17:10:00,79.7,51.8,28.27,SW,219,3.0,10.0,38,0.00,CLR,,0.00,WeatherDisplay:10.37,2013-08-03 21:10:00,
2013-08-03 17:20:00,81.1,53.1,28.24,SW,219,2.0,8.0,38,0.00,CLR,,0.00,WeatherDisplay:10.37,2013-08-03 21:20:00,
2013-08-03 17:30:00,81.1,50.0,28.24,SW,224,6.0,7.0,34,0.00,CLR,,0.00,WeatherDisplay:10.37,2013-08-03 21:30:00,
2013-08-03 17:40:00,79.9,52.0,28.24,SW,217,2.0,8.0,38,0.00,CLR,,0.00,WeatherDisplay:10.37,2013-08-03 21:40:00,
2013-08-03 17:50:00,80.6,53.4,28.27,SW,226,5.0,6.0,39,0.00,CLR,,0.00,WeatherDisplay:10.37,2013-08-03 21:50:00,
2013-08-03 18:00:00,81.6,54.2,28.27,SW,220,5.0,7.0,39,0.00,CLR,,0.00,WeatherDisplay:10.37,2013-08-03 22:00:00,
2013-08-03 18:10:00,82.6,52.9,28.27,SW,233,2.0,6.0,36,0.00,CLR,,0.00,WeatherDisplay:10.37,2013-08-03 22:10:00,
2013-08-03 18:20:00,79.7,51.8,28.27,SW,232,5.0,6.0,38,0.00,CLR,,0.00,WeatherDisplay:10.37,2013-08-03 22:20:00,
2013-08-03 18:30:00,78.6,52.9,28.27,SW,226,3.0,5.0,41,0.00,CLR,,0.00,WeatherDisplay:10.37,2013-08-03 22:30:00,
2013-08-03 18:40:00,79.8,54.0,28.24,SSW,210,5.0,8.0,41,0.00,CLR,,0.00,WeatherDisplay:10.37,2013-08-03 22:40:00,
2013-08-03 18:50:00,80.6,53.3,28.24,SSW,210,3.0,8.0,39,0.00,CLR,,0.00,WeatherDisplay:10.37,2013-08-03 22:50:00,
2013-08-03 19:00:00,79.5,53.8,28.24,SW,222,3.0,8.0,41,0.00,CLR,,0.00,WeatherDisplay:10.37,2013-08-03 23:00:00,
2013-08-03 19:10:00,78.5,53.5,28.24,SW,227,3.0,8.0,42,0.00,CLR,,0.00,WeatherDisplay:10.37,2013-08-03 23:10:00,
2013-08-03 19:20:00,77.4,53.7,28.24,SW,216,3.0,6.0,44,0.00,CLR,,0.00,WeatherDisplay:10.37,2013-08-03 23:20:00,
2013-08-03 19:30:00,76.5,54.1,28.24,SSW,205,1.0,5.0,46,0.00,CLR,,0.00,WeatherDisplay:10.37,2013-08-03 23:30:00,
2013-08-03 19:40:00,76.5,54.7,28.21,SW,222,2.0,3.0,47,0.00,CLR,,0.00,WeatherDisplay:10.37,2013-08-03 23:40:00,
2013-08-03 19:50:00,76.1,55.0,28.21,SSW,212,1.0,3.0,48,0.00,CLR,,0.00,WeatherDisplay:10.37,2013-08-03 23:50:00,
2013-08-03 20:00:00,75.7,54.6,28.21,SSW,205,1.0,3.0,48,0.00,CLR,,0.00,WeatherDisplay:10.37,2013-08-04 00:00:00,
2013-08-03 20:10:00,75.1,54.6,28.21,SSW,202,0.0,2.0,49,0.00,CLR,,0.00,WeatherDisplay:10.37,2013-08-04 00:10:00,
2013-08-03 20:20:00,74.3,56.6,28.21,SW,217,0.0,2.0,54,0.00,CLR,,0.00,WeatherDisplay:10.37,2013-08-04 00:20:00,
2013-08-03 20:30:00,73.4,56.2,28.21,WSW,248,0.0,0.0,55,0.00,CLR,,0.00,WeatherDisplay:10.37,2013-08-04 00:30:00,
2013-08-03 20:40:00,72.9,56.7,28.24,WSW,248,0.0,0.0,57,0.00,CLR,,0.00,WeatherDisplay:10.37,2013-08-04 00:40:00,
2013-08-03 20:50:00,72.7,57.0,28.24,WSW,237,0.0,0.0,58,0.00,CLR,,0.00,WeatherDisplay:10.37,2013-08-04 00:50:00,
2013-08-03 21:00:00,72.3,58.1,28.24,WSW,245,0.0,0.0,61,0.00,CLR,,0.00,WeatherDisplay:10.37,2013-08-04 01:00:00,
2013-08-03 21:10:00,72.0,58.2,28.24,WSW,248,0.0,0.0,62,0.00,CLR,,0.00,WeatherDisplay:10.37,2013-08-04 01:10:00,
2013-08-03 21:20:00,71.8,58.9,28.24,SW,222,2.0,3.0,64,0.00,CLR,,0.00,WeatherDisplay:10.37,2013-08-04 01:20:00,
2013-08-03 21:30:00,71.6,59.2,28.24,SSW,203,1.0,3.0,65,0.00,CLR,,0.00,WeatherDisplay:10.37,2013-08-04 01:30:00,
2013-08-03 21:40:00,71.6,59.6,28.27,SSW,199,1.0,3.0,66,0.00,CLR,,0.00,WeatherDisplay:10.37,2013-08-04 01:40:00,
2013-08-03 21:50:00,71.5,59.9,28.27,SSW,209,0.0,3.0,67,0.00,CLR,,0.00,WeatherDisplay:10.37,2013-08-04 01:50:00,
2013-08-03 22:00:00,71.2,60.1,28.27,SW,218,0.0,0.0,68,0.00,CLR,,0.00,WeatherDisplay:10.37,2013-08-04 02:00:00,
2013-08-03 22:10:00,71.4,60.7,28.27,SSW,200,2.0,3.0,69,0.00,CLR,,0.00,WeatherDisplay:10.37,2013-08-04 02:10:00,
2013-08-03 22:20:00,71.6,61.3,28.24,SSW,204,2.0,5.0,70,0.00,CLR,,0.00,WeatherDisplay:10.37,2013-08-04 02:20:00,
2013-08-03 22:30:00,71.6,61.3,28.24,SSW,201,2.0,5.0,70,0.00,CLR,,0.00,WeatherDisplay:10.37,2013-08-04 02:30:00,
2013-08-03 22:40:00,71.6,61.3,28.24,SSW,202,2.0,5.0,70,0.00,CLR,,0.00,WeatherDisplay:10.37,2013-08-04 02:40:00,
2013-08-03 22:50:00,71.7,61.4,28.24,SSW,205,2.0,4.0,70,0.00,CLR,,0.00,WeatherDisplay:10.37,2013-08-04 02:50:00,
2013-08-03 23:00:00,71.6,61.3,28.24,SSW,203,2.0,3.0,70,0.00,CLR,,0.00,WeatherDisplay:10.37,2013-08-04 03:00:00,
2013-08-03 23:10:00,71.6,61.3,28.21,SSW,201,2.0,4.0,70,0.00,CLR,,0.00,WeatherDisplay:10.37,2013-08-04 03:10:00,
2013-08-03 23:20:00,71.6,61.3,28.24,SW,216,1.0,5.0,70,0.00,CLR,,0.00,WeatherDisplay:10.37,2013-08-04 03:20:00,
2013-08-03 23:30:00,71.6,62.1,28.24,SSW,207,2.0,3.0,72,0.00,CLR,,0.00,WeatherDisplay:10.37,2013-08-04 03:30:00,
2013-08-03 23:40:00,71.4,61.5,28.21,SSW,197,2.0,4.0,71,0.00,CLR,,0.00,WeatherDisplay:10.37,2013-08-04 03:40:00,
2013-08-03 23:50:00,71.6,62.1,28.21,SSW,204,2.0,3.0,72,0.00,CLR,,0.00,WeatherDisplay:10.37,2013-08-04 03:50:00,